[[{"header":{"parameterUnit":"m.s-1","parameterCategory":1,"la1":30.2991,"la2":30.254,"lo1":-89.0895,"lo2":-89.0444,"dy":0.0017,"dx":0.0017,"nx":28,"ny":28,"refTime":"2024-04-20T21:00:00:Z","depth":0,"parameterNumber":2,"parameterNumberName":"U-component_of_WINDS"},"data":[0,0,0,0,0,0,0,0,0,0,0,0,0,0,0,0,0,0,0,0,0,0,0,0,0,0,0,0,0,0,0,0,0,0,0,0,0,0,0,0,0,0,0,0,0,0,0,0,0,0,0,0,0,0,0,0,0,0,-0.3155,-0.3155,0,-0.3093,-0.3092,-0.3091,-0.3073,-0.3073,-0.3073,-0.3074,-0.3005,-0.3003,-0.3001,0,0,0,0,0,0,0,0,0,0,0,0,0,-0.3256,-0.3254,-0.3155,-0.3154,-0.3154,-0.3093,-0.3092,-0.3091,-0.3073,-0.3073,-0.3073,-0.3074,-0.3006,-0.3003,-0.3001,0,0,0,0,0,0,0,0,0,0,0,0,0,-0.3204,-0.3253,-0.3155,-0.3137,-0.3135,-0.3093,-0.3092,-0.3091,-0.3072,-0.3073,-0.3073,-0.3074,-0.3007,-0.3004,-0.3,-0.2971,0,0,-0.2991,-0.2989,0,0,0,0,0,0,0,0,-0.3207,-0.3201,-0.3141,-0.3138,-0.3136,-0.3091,-0.3102,-0.305,-0.3072,-0.3096,-0.3074,-0.3074,-0.3033,-0.3028,-0.3015,-0.2967,-0.2964,-0.299,-0.2988,-0.2987,-0.2986,0,0,0,0,0,0,0,-0.3211,-0.3203,-0.313,-0.314,-0.3137,-0.3131,-0.3124,-0.3092,-0.3062,-0.3094,-0.3093,-0.3086,-0.3032,-0.3018,-0.3013,-0.2963,-0.299,-0.2988,-0.2986,-0.2984,-0.2889,-0.2889,0,0,0,0,0,0,-0.3218,-0.3206,-0.3132,-0.3128,-0.3174,-0.3129,-0.3121,-0.3105,-0.3063,-0.3057,-0.3085,-0.3085,-0.3023,-0.3017,-0.301,-0.2973,-0.2987,-0.2984,-0.2982,-0.289,-0.2889,-0.2888,0,0,0,0,0,0,-0.322,-0.3212,-0.3135,-0.3167,-0.3157,-0.3127,-0.3108,-0.3103,-0.3089,-0.3056,-0.305,-0.3077,-0.3023,-0.3015,-0.2981,-0.2971,-0.2983,-0.298,-0.2891,-0.289,-0.2889,-0.2898,0,0,0,0,0,0,-0.3223,-0.3212,-0.3201,-0.3167,-0.3155,-0.3108,-0.3108,-0.3102,-0.3084,-0.3084,-0.3047,-0.3041,-0.3023,-0.2986,-0.2978,-0.2966,-0.2977,-0.2891,-0.289,-0.2889,-0.2899,-0.2898,-0.2897,0,0,0,0,0,-0.3227,-0.3205,-0.3201,-0.3192,-0.3141,-0.3107,-0.31,-0.3081,-0.3084,-0.3072,-0.3051,-0.3042,-0.2973,-0.2983,-0.2973,-0.2961,-0.2892,-0.289,-0.2889,-0.2899,-0.2898,-0.2897,0,0,0,0,0,0,-0.3238,-0.3201,-0.3195,-0.3162,-0.3138,-0.3104,-0.3088,-0.308,-0.3054,-0.3054,-0.303,-0.3022,-0.299,-0.2972,-0.2983,-0.293,-0.2932,-0.2929,-0.2943,-0.2942,-0.2941,-0.2945,-0.2975,0,0,0,0,0,-0.3237,-0.3213,-0.3182,-0.3156,-0.3144,-0.3119,-0.3103,-0.3091,-0.3064,-0.3053,-0.3029,-0.3003,-0.2975,-0.2958,-0.293,-0.2896,-0.2888,-0.2883,-0.2882,-0.2882,-0.2879,-0.286,-0.2858,-0.2884,-0.2884,-0.2884,0,0,-0.3233,-0.321,-0.3197,-0.3157,-0.3137,-0.3113,-0.311,-0.3084,-0.3065,-0.3049,-0.3016,-0.2998,-0.2966,-0.2933,-0.2917,-0.2917,-0.287,-0.288,-0.288,-0.2877,-0.2858,-0.2856,-0.2854,-0.2883,-0.2883,-0.2883,0,0,-0.3215,-0.3196,-0.3172,-0.3153,-0.3123,-0.3106,-0.3101,-0.3068,-0.3056,-0.3023,-0.3011,-0.2987,-0.294,-0.2919,-0.2902,-0.2877,-0.2868,-0.2869,-0.2864,-0.2846,-0.2844,-0.2842,-0.2833,-0.283,-0.2866,-0.2866,-0.2866,0,-0.3215,-0.3178,-0.3161,-0.3136,-0.3119,-0.3105,-0.3081,-0.3062,-0.3024,-0.3012,-0.3014,-0.2955,-0.2933,-0.2894,-0.2889,-0.2875,-0.2868,-0.2873,-0.2846,-0.2844,-0.2841,-0.2833,-0.283,-0.2867,-0.2867,-0.2867,-0.2867,0,-0.3179,-0.3154,-0.3139,-0.3105,-0.3086,-0.3061,-0.3039,-0.3022,-0.3012,-0.2995,-0.2962,-0.2935,-0.2903,-0.2893,-0.2882,-0.2853,-0.2854,-0.2851,-0.2852,-0.284,-0.2831,-0.2828,-0.2867,-0.2867,-0.2867,-0.2867,0,0,-0.3165,-0.3123,-0.3117,-0.3102,-0.3069,-0.3049,-0.3023,-0.2993,-0.2979,-0.2954,-0.2932,-0.2893,-0.2891,-0.2871,-0.2858,-0.2842,-0.2825,-0.2841,-0.284,-0.2839,-0.2791,-0.2794,-0.279,-0.2819,-0.2818,-0.2818,-0.2794,0,-0.3142,-0.3098,-0.3082,-0.3045,-0.3022,-0.3009,-0.2987,-0.2964,-0.2948,-0.2925,-0.2907,-0.288,-0.2879,-0.2867,-0.2851,-0.283,-0.2815,-0.2832,-0.2797,-0.2796,-0.2805,-0.2786,-0.2788,-0.2766,-0.279,-0.279,-0.2789,0,-0.311,-0.3086,-0.3048,-0.3018,-0.3008,-0.2989,-0.296,-0.2939,-0.2912,-0.2902,-0.2881,-0.2869,-0.2842,-0.2846,-0.2808,-0.282,-0.2805,-0.2793,-0.2791,-0.2787,-0.2792,-0.278,-0.2759,-0.2756,-0.2784,-0.2784,-0.2785,0,-0.3103,-0.3062,-0.3033,-0.3021,-0.2986,-0.2972,-0.2957,-0.2931,-0.2915,-0.2889,-0.2878,-0.285,-0.2834,-0.2812,-0.2792,-0.2797,-0.2756,-0.2758,-0.2745,-0.2746,-0.2736,-0.2737,-0.2712,-0.2728,-0.2728,-0.2728,-0.2728,0,-0.308,-0.3056,-0.303,-0.3013,-0.2986,-0.2968,-0.2942,-0.2926,-0.2903,-0.2882,-0.2869,-0.2849,-0.2825,-0.2801,-0.2786,-0.2756,-0.2749,-0.2739,-0.2735,-0.274,-0.2742,-0.273,-0.273,-0.2727,-0.2727,-0.2727,-0.2728,0,-0.3067,-0.3049,-0.3017,-0.2988,-0.298,-0.2962,-0.2936,-0.2918,-0.2902,-0.2875,-0.2868,-0.2842,-0.2814,-0.2793,-0.2756,-0.2746,-0.2714,-0.271,-0.2724,-0.2722,-0.271,-0.2712,-0.2676,-0.2671,-0.269,-0.269,-0.269,0,-0.3053,-0.3035,-0.3004,-0.299,-0.2975,-0.2952,-0.2935,-0.2917,-0.29,-0.2869,-0.2855,-0.2826,-0.2803,-0.2758,-0.2736,-0.2708,-0.2703,-0.2692,-0.2698,-0.2704,-0.2702,-0.2704,-0.2702,-0.2691,-0.2691,-0.2691,-0.2691,0,-0.303,-0.3022,-0.3,-0.2974,-0.2955,-0.2933,-0.2911,-0.29,-0.2877,-0.2859,-0.2831,-0.2813,-0.2777,-0.2748,-0.2718,-0.2701,-0.2692,-0.269,-0.2685,-0.269,-0.2698,-0.2693,-0.2721,-0.269,-0.269,-0.269,-0.269,-0.269,-0.3016,-0.3,-0.2976,-0.2951,-0.2934,-0.2914,-0.2896,-0.2879,-0.2856,-0.2825,-0.2816,-0.2787,-0.2761,-0.272,-0.2703,-0.268,-0.268,-0.2673,-0.2672,-0.267,-0.2671,-0.2703,-0.2675,-0.2675,-0.2675,-0.2675,-0.2675,0,-0.2992,-0.2977,-0.2954,-0.2925,-0.2906,-0.2901,-0.2877,-0.286,-0.2836,-0.2813,-0.2791,-0.2759,-0.2732,-0.2708,-0.268,-0.2666,-0.2661,-0.2659,-0.266,-0.2656,-0.2673,-0.2679,-0.2664,-0.2664,-0.2664,-0.2664,-0.2664,-0.2664,-0.2978,-0.295,-0.294,-0.2904,-0.2888,-0.2861,-0.2847,-0.2829,-0.2811,-0.2777,-0.2755,-0.274,-0.2717,-0.2687,-0.2662,-0.2656,-0.2646,-0.2645,-0.2637,-0.2653,-0.2655,-0.2656,-0.2662,-0.2643,-0.2643,-0.2622,-0.2622,-0.2622]},{"header":{"parameterUnit":"m.s-1","parameterCategory":1,"la1":30.2991,"la2":30.254,"lo1":-89.0895,"lo2":-89.0444,"dy":0.0017,"dx":0.0017,"nx":28,"ny":28,"refTime":"2024-04-20T21:00:00:Z","depth":0,"parameterNumber":3,"parameterNumberName":"V-component_of_WINDS"},"data":[0,0,0,0,0,0,0,0,0,0,0,0,0,0,0,0,0,0,0,0,0,0,0,0,0,0,0,0,0,0,0,0,0,0,0,0,0,0,0,0,0,0,0,0,0,0,0,0,0,0,0,0,0,0,0,0,0,0,4.2173,4.2173,0,4.2205,4.2205,4.2206,4.2309,4.2311,4.2313,4.2316,4.234,4.2339,4.2337,0,0,0,0,0,0,0,0,0,0,0,0,0,4.2193,4.2193,4.2172,4.2173,4.2173,4.2205,4.2205,4.2206,4.2308,4.2311,4.2314,4.2317,4.2341,4.2339,4.2337,0,0,0,0,0,0,0,0,0,0,0,0,0,4.2201,4.2192,4.2172,4.2229,4.2234,4.2205,4.2205,4.2206,4.2308,4.2311,4.2315,4.2318,4.2341,4.2339,4.2337,4.2253,0,0,4.233,4.2329,0,0,0,0,0,0,0,0,4.22,4.22,4.222,4.2225,4.2231,4.2257,4.2222,4.2221,4.2307,4.2279,4.2316,4.232,4.2309,4.2309,4.2308,4.2254,4.2255,4.233,4.2328,4.2327,4.2327,0,0,0,0,0,0,0,4.2199,4.2199,4.2185,4.222,4.2227,4.225,4.2255,4.2222,4.2274,4.2282,4.229,4.2293,4.2312,4.231,4.2309,4.2256,4.233,4.2328,4.2326,4.2325,4.2137,4.2133,0,0,0,0,0,0,4.2192,4.2198,4.2184,4.2186,4.2224,4.2247,4.2252,4.2244,4.2275,4.2283,4.229,4.2297,4.2312,4.2311,4.231,4.2215,4.2327,4.2325,4.2324,4.214,4.2136,4.2132,0,0,0,0,0,0,4.2192,4.219,4.2183,4.2194,4.2195,4.2243,4.2233,4.2243,4.2241,4.2281,4.2289,4.2277,4.2314,4.2313,4.2267,4.2217,4.2324,4.2322,4.2145,4.2139,4.2134,4.2023,0,0,0,0,0,0,4.2192,4.2189,4.2159,4.2193,4.2194,4.2141,4.223,4.2241,4.2238,4.2248,4.2272,4.2279,4.2317,4.227,4.2265,4.2216,4.232,4.2149,4.2142,4.2136,4.2031,4.2014,4.2,0,0,0,0,0,4.2193,4.2124,4.2157,4.2155,4.2158,4.2138,4.2138,4.2186,4.2233,4.2202,4.2228,4.2278,4.2224,4.2265,4.226,4.2209,4.2153,4.2144,4.2136,4.2038,4.2018,4.2,0,0,0,0,0,0,4.208,4.213,4.2166,4.2108,4.2118,4.2155,4.2118,4.2163,4.2158,4.2167,4.2225,4.2229,4.2175,4.2188,4.2232,4.2131,4.2197,4.2187,4.2124,4.2105,4.2089,4.2086,4.2318,0,0,0,0,0,4.2049,4.2031,4.2074,4.2018,4.2022,4.2069,4.2062,4.2099,4.211,4.2114,4.2137,4.2144,4.213,4.2118,4.2106,4.2034,4.2041,4.1997,4.1982,4.1968,4.1959,4.1922,4.1903,4.2105,4.2105,4.2105,0,0,4.1983,4.2008,4.1992,4.1996,4.2009,4.1987,4.2072,4.2044,4.2028,4.2109,4.2068,4.2085,4.2097,4.2038,4.2013,4.2047,4.1905,4.1958,4.1947,4.1945,4.1912,4.1892,4.1875,4.2099,4.21,4.2101,0,0,4.1852,4.1869,4.1825,4.1837,4.1856,4.1889,4.1878,4.1909,4.1925,4.1885,4.1946,4.1927,4.1899,4.1906,4.1906,4.1781,4.1826,4.1775,4.1692,4.1656,4.164,4.1626,4.1581,4.1564,4.1766,4.1765,4.1765,0,4.1766,4.1738,4.1796,4.1766,4.1765,4.1842,4.1797,4.1805,4.1817,4.1814,4.1853,4.1823,4.1836,4.178,4.175,4.1747,4.1736,4.1771,4.1638,4.1625,4.1612,4.157,4.1553,4.1759,4.176,4.176,4.1761,0,4.1633,4.1612,4.1574,4.1588,4.1584,4.1546,4.1596,4.1584,4.1622,4.165,4.1608,4.1628,4.1622,4.1612,4.1647,4.1561,4.1582,4.1628,4.1695,4.1586,4.1547,4.1531,4.175,4.1752,4.1754,4.1756,0,0,4.1428,4.1478,4.1463,4.1471,4.1499,4.1483,4.1449,4.1447,4.1435,4.1442,4.1414,4.1391,4.1436,4.1435,4.1472,4.144,4.134,4.1491,4.1492,4.1461,4.1246,4.1209,4.119,4.1371,4.1368,4.1366,4.1245,0,4.1303,4.125,4.1302,4.1237,4.1219,4.1293,4.1263,4.1276,4.1302,4.1288,4.1316,4.1299,4.1359,4.1359,4.1331,4.1358,4.1297,4.1367,4.1343,4.1341,4.1336,4.117,4.1131,4.1015,4.123,4.1227,4.1225,0,4.115,4.1154,4.1088,4.1123,4.1118,4.109,4.1093,4.108,4.1096,4.1117,4.1118,4.1165,4.1132,4.12,4.1155,4.1202,4.1195,4.1207,4.1203,4.1201,4.1275,4.1162,4.0979,4.0961,4.1202,4.1204,4.1205,0,4.1007,4.0995,4.0955,4.096,4.1,4.0979,4.0993,4.1014,4.101,4.1012,4.101,4.1006,4.1004,4.1,4.1044,4.1089,4.0993,4.1064,4.1007,4.1006,4.0982,4.0982,4.0794,4.098,4.098,4.098,4.098,0,4.0861,4.0818,4.0892,4.0867,4.0821,4.0881,4.0832,4.0855,4.0873,4.0852,4.0915,4.0894,4.0954,4.0939,4.0973,4.093,4.0929,4.0943,4.0952,4.0937,4.0935,4.0932,4.0941,4.0976,4.0977,4.0978,4.0978,0,4.0692,4.074,4.0701,4.0744,4.0753,4.0717,4.0752,4.073,4.0762,4.0735,4.0732,4.0779,4.0765,4.0809,4.08,4.0824,4.0762,4.0784,4.0757,4.0763,4.0704,4.0709,4.0506,4.0483,4.0683,4.0682,4.068,0,4.0595,4.0564,4.0605,4.0597,4.061,4.0596,4.0594,4.0652,4.0646,4.0664,4.0639,4.0631,4.0627,4.06,4.0633,4.0627,4.0649,4.0579,4.0648,4.0634,4.0647,4.0648,4.0645,4.0564,4.0561,4.0559,4.0558,0,4.0418,4.0444,4.044,4.0444,4.044,4.0445,4.0454,4.0444,4.0506,4.0496,4.0485,4.0482,4.0476,4.0466,4.0468,4.0481,4.0528,4.0536,4.0523,4.0505,4.0491,4.0497,4.0716,4.054,4.0541,4.0543,4.0544,4.0544,4.0282,4.0258,4.0284,4.0277,4.0291,4.0299,4.0281,4.0312,4.0304,4.0305,4.034,4.0321,4.0339,4.0347,4.0356,4.0341,4.0373,4.0353,4.0348,4.0342,4.0332,4.0495,4.0341,4.0342,4.0342,4.0343,4.0343,0,4.0107,4.0129,4.0122,4.0135,4.0129,4.018,4.0193,4.0184,4.0168,4.0183,4.0179,4.0165,4.0157,4.019,4.0187,4.0168,4.019,4.0165,4.0166,4.0168,4.0303,4.0315,4.0147,4.0147,4.0147,4.0147,4.0147,4.0147,4.0016,3.998,4.0009,3.998,4.0001,3.9986,3.9989,3.9996,4.0009,3.9992,3.9987,4.001,4.0032,4.0031,4.0025,4.0035,4.003,3.9997,4.0014,4.0139,4.0158,4.0177,4.0188,3.9996,3.9996,3.988,3.9879,3.9878]}]]